[[{"header":{"parameterUnit":"m.s-1","parameterCategory":1,"la1":30.2991,"la2":30.254,"lo1":-89.0895,"lo2":-89.0444,"dy":0.0017,"dx":0.0017,"nx":28,"ny":28,"refTime":"2024-04-12T21:00:00:Z","depth":0,"parameterNumber":2,"parameterNumberName":"U-component_of_WINDS"},"data":[0,0,0,0,0,0,0,0,0,0,0,0,0,0,0,0,0,0,0,0,0,0,0,0,0,0,0,0,0,0,0,0,0,0,0,0,0,0,0,0,0,0,0,0,0,0,0,0,0,0,0,0,0,0,0,0,0,0,-1.4626,-1.4625,0,-1.4557,-1.4556,-1.4556,-1.4492,-1.4491,-1.449,-1.4489,-1.4419,-1.4418,-1.4416,0,0,0,0,0,0,0,0,0,0,0,0,0,-1.4703,-1.4702,-1.4626,-1.4625,-1.4624,-1.4557,-1.4556,-1.4555,-1.4492,-1.4491,-1.449,-1.4489,-1.4419,-1.4418,-1.4416,0,0,0,0,0,0,0,0,0,0,0,0,0,-1.4656,-1.4702,-1.4626,-1.4585,-1.458,-1.4558,-1.4556,-1.4555,-1.4492,-1.4491,-1.449,-1.4488,-1.4419,-1.4418,-1.4416,-1.4429,0,0,-1.4411,-1.441,0,0,0,0,0,0,0,0,-1.4659,-1.4653,-1.4591,-1.4587,-1.4582,-1.4532,-1.4558,-1.4513,-1.4492,-1.4525,-1.4489,-1.4488,-1.4457,-1.4452,-1.4442,-1.4426,-1.4423,-1.4411,-1.441,-1.4409,-1.4408,0,0,0,0,0,0,0,-1.4662,-1.4656,-1.4599,-1.4591,-1.4585,-1.457,-1.4561,-1.4549,-1.4499,-1.4522,-1.4518,-1.451,-1.4454,-1.4444,-1.444,-1.4422,-1.4411,-1.4409,-1.4408,-1.4407,-1.4414,-1.4415,0,0,0,0,0,0,-1.4672,-1.4659,-1.4601,-1.4597,-1.4618,-1.4569,-1.456,-1.4549,-1.4499,-1.449,-1.4511,-1.4508,-1.4447,-1.4442,-1.4437,-1.4449,-1.4409,-1.4407,-1.4406,-1.4413,-1.4414,-1.4416,0,0,0,0,0,0,-1.4673,-1.4667,-1.4604,-1.4626,-1.4617,-1.4569,-1.4557,-1.4548,-1.4538,-1.449,-1.4481,-1.451,-1.4446,-1.444,-1.4432,-1.4446,-1.4407,-1.4405,-1.4411,-1.4413,-1.4415,-1.4474,0,0,0,0,0,0,-1.4676,-1.4668,-1.4672,-1.4627,-1.4616,-1.4599,-1.4558,-1.4548,-1.4535,-1.4529,-1.4486,-1.4478,-1.4445,-1.4435,-1.443,-1.4443,-1.4404,-1.441,-1.4412,-1.4414,-1.447,-1.4477,-1.4483,0,0,0,0,0,-1.4679,-1.4691,-1.4673,-1.4666,-1.462,-1.46,-1.4594,-1.4556,-1.4536,-1.454,-1.451,-1.4479,-1.4446,-1.4435,-1.4429,-1.4441,-1.4409,-1.4412,-1.4414,-1.4467,-1.4476,-1.4483,0,0,0,0,0,0,-1.4739,-1.4685,-1.4663,-1.4661,-1.4636,-1.459,-1.4593,-1.4566,-1.4545,-1.4541,-1.4494,-1.4485,-1.4483,-1.4461,-1.445,-1.4452,-1.4423,-1.4425,-1.4465,-1.4473,-1.448,-1.4484,-1.4402,0,0,0,0,0,-1.4752,-1.474,-1.4693,-1.4696,-1.4685,-1.4642,-1.4631,-1.4604,-1.4576,-1.4565,-1.4534,-1.4508,-1.4491,-1.4481,-1.4463,-1.4468,-1.4457,-1.4473,-1.448,-1.4486,-1.4487,-1.4488,-1.4495,-1.4424,-1.4424,-1.4424,0,0,-1.4779,-1.4748,-1.4743,-1.4708,-1.4685,-1.4674,-1.4633,-1.4623,-1.4614,-1.4563,-1.4554,-1.4531,-1.4499,-1.4497,-1.4495,-1.4479,-1.4505,-1.4489,-1.4494,-1.4492,-1.4492,-1.4498,-1.4504,-1.4426,-1.4426,-1.4426,0,0,-1.4822,-1.4797,-1.4797,-1.4775,-1.4741,-1.4713,-1.4713,-1.4671,-1.4654,-1.4644,-1.4606,-1.4595,-1.4568,-1.4546,-1.4532,-1.4569,-1.454,-1.4565,-1.4598,-1.46,-1.4606,-1.461,-1.4623,-1.4629,-1.4567,-1.4567,-1.4567,0,-1.4859,-1.4841,-1.48,-1.4793,-1.4778,-1.4733,-1.4732,-1.4713,-1.4676,-1.4667,-1.465,-1.4615,-1.4591,-1.4584,-1.4593,-1.4583,-1.4582,-1.4569,-1.4608,-1.4612,-1.4616,-1.4628,-1.4633,-1.457,-1.457,-1.457,-1.4569,0,-1.4888,-1.4876,-1.488,-1.4845,-1.4832,-1.4828,-1.4788,-1.4779,-1.4754,-1.4727,-1.4718,-1.4687,-1.4663,-1.4659,-1.4634,-1.4649,-1.464,-1.4617,-1.4587,-1.4627,-1.4637,-1.4641,-1.4575,-1.4574,-1.4573,-1.4572,0,0,-1.4965,-1.4909,-1.4911,-1.4895,-1.4855,-1.4845,-1.484,-1.4816,-1.481,-1.4786,-1.478,-1.4759,-1.4737,-1.4721,-1.4694,-1.4695,-1.4727,-1.4671,-1.467,-1.4682,-1.4742,-1.4759,-1.4765,-1.4708,-1.4709,-1.4709,-1.4744,0,-1.5001,-1.4988,-1.4952,-1.4951,-1.4939,-1.4897,-1.4892,-1.4868,-1.4844,-1.4831,-1.4804,-1.4789,-1.4762,-1.4752,-1.4752,-1.4723,-1.4738,-1.472,-1.4702,-1.4702,-1.471,-1.477,-1.4788,-1.4823,-1.4748,-1.4749,-1.4749,0,-1.504,-1.5019,-1.5017,-1.4978,-1.4972,-1.4969,-1.4944,-1.4933,-1.4905,-1.4887,-1.487,-1.484,-1.4832,-1.4806,-1.4795,-1.4784,-1.4775,-1.476,-1.4761,-1.4756,-1.4727,-1.4767,-1.4833,-1.4838,-1.4755,-1.4755,-1.4754,0,-1.5096,-1.5067,-1.5062,-1.505,-1.5005,-1.5004,-1.4985,-1.4956,-1.4944,-1.4923,-1.4915,-1.4894,-1.4882,-1.4867,-1.4832,-1.4816,-1.4826,-1.4796,-1.4811,-1.4812,-1.4813,-1.4813,-1.4878,-1.4809,-1.4809,-1.4809,-1.4809,0,-1.5139,-1.5139,-1.5087,-1.5083,-1.5083,-1.5042,-1.5043,-1.502,-1.4995,-1.4986,-1.4949,-1.4942,-1.4897,-1.4885,-1.4858,-1.4854,-1.4849,-1.4834,-1.4827,-1.4837,-1.4839,-1.483,-1.4826,-1.4811,-1.481,-1.481,-1.481,0,-1.52,-1.5166,-1.5157,-1.5116,-1.5106,-1.5107,-1.5071,-1.5067,-1.5041,-1.5032,-1.5027,-1.4987,-1.4971,-1.4935,-1.491,-1.4892,-1.4894,-1.4881,-1.4904,-1.4899,-1.4915,-1.4914,-1.4975,-1.4981,-1.491,-1.4911,-1.4911,0,-1.5229,-1.5228,-1.5188,-1.5179,-1.5162,-1.515,-1.5138,-1.5099,-1.5088,-1.5057,-1.5057,-1.5038,-1.5021,-1.4999,-1.4967,-1.4948,-1.4934,-1.4957,-1.4931,-1.4941,-1.4934,-1.4934,-1.4934,-1.4962,-1.4963,-1.4964,-1.4964,0,-1.5285,-1.5268,-1.5252,-1.5231,-1.5218,-1.5199,-1.5179,-1.5174,-1.5131,-1.5121,-1.5104,-1.5092,-1.5066,-1.5049,-1.5025,-1.5006,-1.4978,-1.4973,-1.4975,-1.4985,-1.4998,-1.4991,-1.4918,-1.4972,-1.4971,-1.497,-1.497,-1.497,-1.5331,-1.5328,-1.5299,-1.5283,-1.5263,-1.5245,-1.5239,-1.5213,-1.5199,-1.5175,-1.5154,-1.514,-1.5113,-1.5078,-1.5062,-1.505,-1.5036,-1.504,-1.504,-1.5041,-1.5046,-1.5001,-1.5046,-1.5046,-1.5046,-1.5045,-1.5045,0,-1.5384,-1.5363,-1.5349,-1.5321,-1.5309,-1.5285,-1.5261,-1.5252,-1.5241,-1.5218,-1.5202,-1.5184,-1.5167,-1.5135,-1.5116,-1.5113,-1.51,-1.5109,-1.5109,-1.5105,-1.506,-1.506,-1.512,-1.512,-1.512,-1.512,-1.512,-1.512,-1.541,-1.5404,-1.5384,-1.5369,-1.5348,-1.5334,-1.5323,-1.5306,-1.5288,-1.527,-1.5255,-1.5235,-1.5209,-1.5187,-1.5171,-1.5162,-1.5156,-1.517,-1.5157,-1.5115,-1.5108,-1.5101,-1.51,-1.5169,-1.5169,-1.5202,-1.5203,-1.5203]},{"header":{"parameterUnit":"m.s-1","parameterCategory":1,"la1":30.2991,"la2":30.254,"lo1":-89.0895,"lo2":-89.0444,"dy":0.0017,"dx":0.0017,"nx":28,"ny":28,"refTime":"2024-04-12T21:00:00:Z","depth":0,"parameterNumber":3,"parameterNumberName":"V-component_of_WINDS"},"data":[0,0,0,0,0,0,0,0,0,0,0,0,0,0,0,0,0,0,0,0,0,0,0,0,0,0,0,0,0,0,0,0,0,0,0,0,0,0,0,0,0,0,0,0,0,0,0,0,0,0,0,0,0,0,0,0,0,0,4.2834,4.2833,0,4.2794,4.2793,4.2793,4.2778,4.2778,4.2778,4.2778,4.2733,4.2732,4.273,0,0,0,0,0,0,0,0,0,0,0,0,0,4.2894,4.2893,4.2834,4.2833,4.2833,4.2794,4.2793,4.2793,4.2778,4.2778,4.2778,4.2778,4.2733,4.2732,4.273,0,0,0,0,0,0,0,0,0,0,0,0,0,4.2862,4.2893,4.2834,4.2821,4.2819,4.2794,4.2793,4.2792,4.2778,4.2778,4.2778,4.2778,4.2734,4.2732,4.273,4.2713,0,0,4.2724,4.2723,0,0,0,0,0,0,0,0,4.2864,4.286,4.2823,4.2822,4.282,4.2791,4.2798,4.2766,4.2778,4.2793,4.2778,4.2779,4.2752,4.2748,4.274,4.2711,4.2709,4.2724,4.2722,4.2721,4.2721,0,0,0,0,0,0,0,4.2866,4.2862,4.2818,4.2823,4.2821,4.2816,4.2811,4.2791,4.2772,4.2792,4.2791,4.2787,4.2751,4.2742,4.2739,4.2708,4.2724,4.2722,4.2721,4.272,4.2663,4.2662,0,0,0,0,0,0,4.2871,4.2864,4.2819,4.2817,4.2843,4.2815,4.281,4.28,4.2772,4.2768,4.2786,4.2786,4.2745,4.2741,4.2737,4.2716,4.2721,4.272,4.2718,4.2663,4.2663,4.2662,0,0,0,0,0,0,4.2873,4.2867,4.2821,4.284,4.2833,4.2813,4.2802,4.2799,4.279,4.2768,4.2764,4.2781,4.2745,4.274,4.2719,4.2714,4.2719,4.2717,4.2663,4.2663,4.2663,4.2673,0,0,0,0,0,0,4.2874,4.2868,4.2862,4.284,4.2833,4.2805,4.2802,4.2798,4.2788,4.2787,4.2762,4.2758,4.2745,4.2723,4.2717,4.2711,4.2715,4.2664,4.2663,4.2663,4.2673,4.2673,4.2672,0,0,0,0,0,4.2877,4.2866,4.2862,4.2857,4.2825,4.2805,4.28,4.2787,4.2787,4.2781,4.2766,4.2759,4.2715,4.2721,4.2715,4.2708,4.2664,4.2663,4.2663,4.2673,4.2673,4.2672,0,0,0,0,0,0,4.2887,4.2863,4.2858,4.284,4.2825,4.2802,4.2794,4.2787,4.277,4.277,4.2753,4.2747,4.2728,4.2716,4.2722,4.269,4.2689,4.2687,4.2699,4.2698,4.2698,4.2702,4.2714,0,0,0,0,0,4.2887,4.2874,4.2853,4.2839,4.2831,4.2814,4.2804,4.2796,4.2778,4.2771,4.2755,4.2737,4.272,4.2708,4.2691,4.2671,4.2665,4.2663,4.2663,4.2663,4.2661,4.265,4.2649,4.266,4.266,4.266,0,0,4.2887,4.2872,4.2865,4.284,4.2827,4.2813,4.2808,4.2793,4.2781,4.2768,4.2748,4.2736,4.2715,4.2694,4.2684,4.2683,4.2657,4.2662,4.2662,4.2661,4.2649,4.2648,4.2647,4.266,4.266,4.266,0,0,4.288,4.2868,4.2855,4.2842,4.2823,4.2812,4.2809,4.2787,4.2779,4.2759,4.2748,4.2734,4.2704,4.2689,4.2678,4.2666,4.2658,4.266,4.266,4.2648,4.2647,4.2647,4.2642,4.2641,4.2659,4.2659,4.2659,0,4.2883,4.2861,4.2849,4.2834,4.2824,4.2812,4.2799,4.2786,4.2762,4.2754,4.2754,4.2716,4.2701,4.2677,4.2674,4.2665,4.2661,4.2663,4.2649,4.2648,4.2647,4.2642,4.2641,4.2659,4.2659,4.2659,4.2659,0,4.2865,4.285,4.2842,4.2821,4.2809,4.2794,4.2779,4.2768,4.276,4.2748,4.2727,4.2709,4.2688,4.2681,4.2673,4.2656,4.2656,4.2652,4.2651,4.2646,4.2642,4.264,4.266,4.266,4.2659,4.2659,0,0,4.2863,4.2836,4.2833,4.2823,4.2801,4.2788,4.2773,4.2754,4.2745,4.2728,4.2714,4.2689,4.2686,4.2673,4.2663,4.2653,4.2644,4.265,4.265,4.265,4.2624,4.2628,4.2626,4.2639,4.2639,4.2639,4.2626,0,4.2854,4.2828,4.2816,4.2795,4.2781,4.277,4.2757,4.2741,4.2729,4.2715,4.2701,4.2684,4.2681,4.2673,4.2663,4.2648,4.2639,4.2648,4.2625,4.2625,4.2631,4.2623,4.2626,4.2616,4.2624,4.2624,4.2624,0,4.2839,4.2824,4.2802,4.2782,4.2775,4.2764,4.2745,4.2731,4.2713,4.2705,4.2691,4.2681,4.2664,4.2664,4.2639,4.2646,4.2636,4.2627,4.2626,4.2623,4.2624,4.262,4.2612,4.261,4.2621,4.2621,4.2621,0,4.284,4.2814,4.2797,4.2789,4.2765,4.2757,4.2747,4.2729,4.2718,4.2701,4.2693,4.2674,4.2663,4.2648,4.2633,4.2634,4.2609,4.2608,4.2601,4.2602,4.2596,4.2597,4.2586,4.259,4.259,4.259,4.259,0,4.283,4.2817,4.2798,4.2788,4.2772,4.2758,4.2743,4.2731,4.2715,4.2702,4.269,4.2678,4.2659,4.2643,4.2631,4.2612,4.2607,4.2599,4.2596,4.26,4.2601,4.2594,4.2594,4.2589,4.259,4.259,4.259,0,4.2829,4.2815,4.2797,4.2776,4.2771,4.276,4.2742,4.2731,4.2719,4.2702,4.2697,4.2678,4.2659,4.2642,4.2617,4.2608,4.2589,4.2585,4.2596,4.2594,4.2588,4.2589,4.2572,4.2569,4.2575,4.2575,4.2575,0,4.2824,4.2814,4.2792,4.2783,4.2773,4.2758,4.2748,4.2733,4.2722,4.27,4.2692,4.2673,4.2656,4.2626,4.2609,4.2589,4.2585,4.258,4.2582,4.2587,4.2585,4.2586,4.2585,4.258,4.258,4.2581,4.2581,0,4.2816,4.281,4.2796,4.2779,4.2767,4.2752,4.2738,4.273,4.2713,4.2701,4.2682,4.267,4.2644,4.2625,4.2604,4.2591,4.2582,4.258,4.2578,4.2582,4.2589,4.2585,4.2596,4.2581,4.2581,4.2581,4.2581,4.2581,4.2812,4.2803,4.2787,4.2771,4.2759,4.2745,4.2734,4.2721,4.2706,4.2686,4.2677,4.2658,4.2639,4.261,4.2598,4.2582,4.258,4.2576,4.2575,4.2575,4.2575,4.2591,4.2578,4.2577,4.2577,4.2577,4.2577,0,4.2804,4.2793,4.2779,4.276,4.2747,4.2742,4.2725,4.2714,4.2698,4.2682,4.2667,4.2645,4.2627,4.2608,4.2588,4.2579,4.2574,4.2574,4.2574,4.2572,4.2578,4.2582,4.2578,4.2578,4.2578,4.2578,4.2578,4.2578,4.2798,4.2782,4.2774,4.2752,4.274,4.2723,4.2714,4.2701,4.2688,4.2665,4.265,4.2639,4.2621,4.26,4.2582,4.2577,4.257,4.2571,4.2565,4.2571,4.2571,4.2571,4.2575,4.257,4.257,4.256,4.256,4.256]}]]